User: anonymous   Login
Location: Bourg-d�Oueil
(42.8588°N, 0.4991°E)
Time: 23:55:43
(UTC+00:00)
Language:

Cosmos 968 Rocket - Orbit

View from above orbital plane
View from above orbital plane
View from above satellite
View from above satellite

Ground track
Ground track

The orbit data is extracted from the following two-line orbital elements,

1 10521U 77119B   21259.49440511  .00000049  00000-0  23742-4 0  9996
2 10521  74.0254 273.7916 0022386 268.2766  91.5825 14.40837919295503
Epoch (UTC): 16 September 2021 11:51:56
Eccentricity: 0.0022386
inclination: 74.0254°
perigee height: 740 km
apogee height: 772 km
right ascension of ascending node: 273.7916°
argument of perigee: 268.2766°
revolutions per day: 14.40837919
mean anomaly at epoch: 91.5825°
orbit number at epoch: 29550

The dashed part of the orbit path shows where the satellite is in the earth's shadow,  

DLR